OBJECT CZ, 66761

Orbit data source: Space-Track

You're viewing an Uncataloged Satellite

Recently launched and/or uncataloged satellites may have evolving metadata. Metadata may include but not limited to: Owner, Maufacturer, Bus, Motor, and Mission.

OBJECT CZ, 66761 is a satellite in SSO that was launched on Fri, 28 Nov 2025 UTC via an FALCON 9 launch vehicle from the Air Force Western Test Range (AFWTR). Unknown objects in Earth's orbit typically refer to objects detected orbiting the Earth but have not yet been identified or cataloged. These objects could be anything from previously untracked satellites, spent rocket stages, debris from satellite collisions, or even natural meteoroids temporarily captured by Earth's gravity.

Loading next visibility...
Identifier
66761, 2025-276CZ
Orbit
SSO
Country
Flag of TBDTBD
Related business
None
Manufacturer
Unknown
Mission
Operational Commercial Sigint
Bus & Motor
Unknown
Mass
Unknown
Launch date (UTC)
2025-11-28 (6 months ago)
Launch vehicle
FALCON 9
Launch site
Air Force Western Test Range (AFWTR)
Object type
Unknown
Shape & HBR
Box + 2 Pan, 0.1 m
Radar Cross Section
0.080 m²

Expand to show TLE details & history
Last TLE update: 6 hours ago

TLE from 6 hours ago
0 OBJECT CZ
1 66761U 25276CZ  26144.96813696  .00008167  00000-0  36214-3 0  9994
2 66761  97.4188 219.3097 0001652  75.7286 284.4134 15.21854148 26929
Epoch: 2026-05-24T23:14Z
TLE epoch observation values (Epoch: 2026-05-24T23:14:07.033Z)
Latitude
0.00004°
Longitude
-11.78228°
Altitude
503.058 km
Speed
7.613 km/s
True Right ascension
14h 37m 14s
True Declination
0° 00' 00"
Sunlit
Object was in full shadow at epoch
Visualization orbit readout
Latitude
Unknown
Longitude
Unknown
Altitude
Unknown
Speed
Unknown
Apparent Right ascension
Unknown
Apparent Declination
Unknown
Sunlit
N/A
Visualization observer readout
Local Sidereal Time
14:31:47
Azimuth
Unknown
Elevation
Unknown
Doppler factor
Unknown
Orbital elements
Apogee altitude
498.348 km
Perigee altitude
496.076 km
Semi-major axis
6,875.349 km
Eccentricity
0.00017
Inclination
97.4188°
RAAN
219.3097°
Arg. of periapsis
75.7286°
True anomaly
284.39506°
Mean anomaly
284.4134°
Eccentric anomaly
284.40423°
Mean motion
3.80716 °/min
Orbital period
94.56 mins
BSTAR
0.00036214
Loading maneuver chart data...
Computing Atmospheric mass density...
Loading historical data...
Loading historical data...
Loading historical data...
Loading historical data...
Loading historical data...
Loading historical data...
Loading historical data...

Documentation

Showing up to 5 results
|